Location: Heisede
(52.2582°N, 9.8523°E)
Time: 00:06:06
(UTC+00:00)

SMAP - Pass Details

Date: 13 January 2026
Orbit: 682 x 683 km, 98.1° (Epoch: 17 February)

Event Time Altitude Azimuth Distance (km) Brightness Sun altitude
Rises 05:24:09 0° 18° (NNE) 3,061 6.5 -17.6°
Reaches altitude 10° 05:26:29 10° 24° (NNE) 2,140 5.7 -17.2°
Maximum altitude 05:31:01 49° 100° (E) 882 4.1 -16.6°
Drops below altitude 10° 05:35:32 10° 175° (S) 2,123 5.8 -15.9°
Sets 05:37:49 0° 181° (S) 3,033 6.6 -15.5°
